Theta_e
330 332 332 332 333 329 329 333 334 332 331 333 333 334 334 335 342 345 348 349 349 349 347 347 347 347 348 349 350 351 352 351 349 348 349 348 345 347 346 344 345 344 347 347
331 330 330 331 330 329 330 333 334 332 331 332 332 335 336 335 338 342 344 347 349 349 349 348 348 347 347 349 351 352 352 351 347 350 349 349 346 346 346 337 345 343 347 348
328 328 328 328 327 328 331 333 332 332 332 332 334 333 335 336 339 341 345 345 347 348 349 349 349 348 348 349 351 352 350 351 346 350 349 348 347 344 340 344 345 343 342 346
328 327 328 328 328 329 333 331 330 332 332 333 331 333 336 334 335 336 337 342 345 346 348 349 350 349 348 348 350 351 344 347 346 347 350 349 348 346 344 344 345 344 335 341
329 328 328 328 329 330 331 330 331 332 332 332 332 332 337 335 334 336 337 336 341 345 346 349 350 349 349 349 350 348 343 344 345 346 349 350 348 347 347 347 347 346 344 337
330 329 329 330 330 330 331 331 332 333 333 334 330 331 335 334 335 337 338 337 341 344 344 348 349 349 349 349 350 345 343 343 345 345 344 346 349 345 347 347 348 343 346 345
332 332 331 329 330 331 331 332 336 336 334 333 331 331 332 333 335 338 340 337 339 345 345 347 349 349 349 349 350 350 345 343 343 344 344 344 345 343 348 349 348 343 345 344
334 334 332 331 332 334 333 334 335 337 336 335 333 333 334 331 335 337 339 341 341 345 345 346 348 349 349 350 351 351 349 343 343 344 344 344 344 349 347 347 348 347 346 345
334 334 331 331 332 332 333 334 332 333 333 333 333 333 333 333 335 335 336 339 342 346 345 346 348 349 349 350 351 351 352 347 344 344 344 344 344 345 349 349 349 348 348 345
333 334 333 332 331 331 332 331 333 333 336 337 335 335 334 334 335 336 337 337 338 342 344 346 347 348 349 349 350 352 352 349 346 346 344 345 344 343 348 349 349 349 348 347
333 334 334 334 334 335 333 334 333 333 334 336 337 336 335 334 337 337 337 338 338 341 345 343 347 347 349 350 350 351 351 352 352 351 351 351 345 345 343 347 347 348 348 348
333 333 336 335 335 333 333 335 334 336 337 337 337 336 334 333 337 337 338 339 340 343 346 342 344 347 348 350 351 351 351 351 351 352 351 350 350 347 349 346 347 347 347 347
329 330 333 332 332 334 334 335 335 335 335 336 337 336 336 336 337 339 340 341 341 342 344 346 345 347 348 350 351 352 352 351 352 352 351 352 351 347 350 349 345 347 345 342
324 325 327 328 328 329 331 332 334 334 336 335 336 336 336 339 342 339 341 343 343 343 342 345 346 348 349 350 351 352 352 352 353 353 352 352 350 348 347 349 345 345 340 342
325 326 326 326 324 323 323 323 324 326 328 330 332 334 336 340 341 342 343 343 344 343 342 343 344 346 348 350 351 352 353 353 353 353 352 350 345 345 347 347 345 341 340 342
323 324 323 324 322 322 322 322 322 323 323 324 325 327 331 337 339 343 342 342 342 342 341 342 343 344 346 349 349 351 352 353 353 353 353 351 346 346 344 344 344 345 338 336
323 323 325 325 325 324 324 326 326 328 328 334 333 340 338 339 337 339 338 338 338 338 340 339 341 342 343 345 348 350 350 353 353 354 354 352 351 344 344 344 345 345 345 338
325 325 326 326 325 326 328 329 329 329 335 336 337 338 336 334 333 336 331 332 333 333 334 336 337 339 341 342 344 351 350 351 353 353 354 353 352 350 348 345 344 344 346 345
323 326 325 326 324 324 323 327 329 330 330 332 332 332 330 330 330 337 331 328 329 329 330 331 333 335 339 340 341 344 354 351 354 353 354 354 351 351 349 344 344 344 345 346
323 324 324 323 323 321 329 326 325 327 329 328 327 326 326 326 332 333 328 327 327 327 328 328 329 332 336 340 340 343 347 354 352 352 353 351 351 350 347 345 340 343 345 345
325 324 321 320 320 321 327 323 322 327 328 325 324 324 324 326 325 324 324 325 326 327 327 327 327 329 332 335 340 342 344 347 351 350 352 354 355 352 346 340 342 344 338 346
322 321 320 322 323 322 322 322 324 324 323 324 324 325 325 325 325 325 325 325 324 324 325 326 327 327 328 332 335 338 342 340 339 350 353 353 351 352 352 341 344 345 345 349
320 321 323 323 323 323 323 323 323 323 323 323 323 323 324 324 324 324 324 325 326 326 325 325 326 327 327 328 332 332 335 337 335 336 350 352 352 352 352 351 349 346 343 342
321 321 324 325 325 324 323 324 323 324 324 325 324 325 325 325 324 324 324 325 326 327 326 326 326 326 327 327 328 330 327 329 335 333 338 351 352 351 351 353 353 352 347 344
321 323 324 325 324 324 324 323 324 324 324 324 324 325 326 326 325 325 324 326 327 326 326 326 326 326 327 327 325 324 324 325 336 338 343 336 349 347 352 352 353 352 353 350
321 323 324 325 323 324 324 323 324 325 325 325 326 326 327 327 326 325 326 325 326 326 325 326 326 327 326 326 327 325 322 324 326 339 337 343 335 343 347 347 346 347 346 345
Wind_Speed
8 10 11 9 6 5 8 10 12 8 3 11 7 11 13 6 13 16 18 20 22 24 23 23 22 22 21 21 21 22 22 20 19 17 16 15 15 16 17 15 14 16 13 11
7 13 12 2 5 7 8 10 10 6 2 10 10 14 13 9 10 14 18 20 22 21 23 25 25 24 23 22 22 22 23 22 21 19 17 16 16 16 18 22 15 18 15 13
12 4 5 8 9 10 11 10 8 10 14 8 9 9 2 2 4 9 13 18 20 23 25 26 28 28 25 26 25 24 24 23 23 20 19 17 18 20 23 18 18 20 21 17
8 5 7 8 8 8 13 1 6 9 12 10 9 6 4 2 2 4 9 14 19 22 25 26 28 28 28 27 25 25 25 24 22 24 21 20 19 20 19 21 18 19 23 22
6 6 9 9 8 4 6 2 9 13 14 12 6 6 8 2 7 12 6 5 12 19 25 27 27 27 27 26 26 27 26 26 24 24 24 22 22 22 23 19 19 22 21 24
11 6 7 10 6 8 5 11 15 10 11 10 7 6 6 7 11 13 9 3 7 16 22 25 25 24 24 25 30 30 28 27 27 26 25 26 22 22 19 21 21 22 20 21
5 12 13 10 12 13 10 14 7 5 5 4 5 8 4 7 8 11 9 1 7 15 19 23 25 25 25 27 27 28 30 30 29 28 26 25 24 22 21 20 19 24 21 22
5 8 8 6 12 2 9 9 7 4 5 6 4 4 5 4 4 8 10 4 4 12 18 23 26 26 27 28 26 29 31 33 31 29 28 26 23 21 22 22 20 21 21 21
4 4 5 5 4 7 7 8 6 10 8 8 5 2 10 5 1 5 10 10 5 5 13 19 23 26 26 27 28 29 29 32 32 30 29 28 25 23 22 22 22 22 22 19
3 6 3 5 4 8 11 6 7 8 8 11 3 4 7 5 2 5 8 9 9 8 5 14 20 24 26 26 26 27 28 32 32 30 29 28 26 25 23 22 24 23 22 22
5 4 5 6 9 4 5 9 8 9 9 11 11 7 5 4 2 7 11 11 13 13 11 8 16 18 21 22 25 26 28 29 30 29 28 26 27 25 24 22 23 23 23 23
4 7 11 14 13 6 11 14 11 11 12 9 8 12 3 3 6 12 12 13 14 14 16 9 8 13 17 21 23 25 25 28 29 29 28 27 25 24 23 24 22 23 26 26
4 6 9 13 12 7 8 2 7 9 11 16 15 11 9 11 7 12 14 15 14 15 16 15 5 6 12 17 21 23 24 26 26 27 28 27 27 26 24 23 22 23 25 27
3 12 12 13 16 12 13 13 10 11 11 15 15 13 11 10 12 13 14 14 14 14 16 15 13 6 6 12 16 19 20 23 25 25 26 28 30 29 27 23 22 22 24 28
4 9 10 13 16 17 19 20 19 20 19 19 18 20 14 9 10 10 11 13 14 16 17 16 15 12 8 6 11 15 17 19 22 26 28 30 29 28 27 25 24 22 23 25
7 8 7 15 15 13 16 17 18 19 18 19 19 19 12 3 9 9 10 12 14 16 18 18 16 15 12 9 7 10 15 17 20 24 26 27 30 31 32 30 26 24 24 25
7 6 6 11 3 10 13 9 7 10 11 8 11 10 7 5 8 8 11 13 14 16 17 19 17 17 15 14 13 10 12 14 18 20 23 26 29 33 33 32 31 29 26 26
5 6 5 8 8 11 9 5 4 7 2 5 6 7 9 9 11 1 11 14 16 17 18 19 19 18 18 16 16 14 8 13 16 19 22 23 26 29 30 32 31 30 28 26
2 5 5 6 9 12 11 5 6 7 4 5 8 8 11 15 17 14 9 17 16 17 17 17 16 17 17 18 18 17 12 9 14 17 20 22 24 26 29 31 36 33 29 30
4 4 7 9 10 8 8 7 8 6 10 7 9 11 15 19 10 3 19 22 22 20 18 19 19 18 16 16 16 14 13 8 12 15 18 21 24 26 31 33 29 28 29 28
5 5 10 9 9 7 9 10 9 11 6 16 14 16 18 14 16 24 25 24 22 23 22 20 18 17 17 16 14 13 11 8 9 13 17 19 23 26 28 32 26 27 30 22
4 4 6 3 5 8 7 11 9 16 21 18 19 20 21 22 23 25 28 28 28 27 26 24 22 19 16 15 13 12 11 11 7 14 15 19 20 22 23 37 24 23 27 27
4 3 6 5 5 14 13 11 16 19 22 23 24 27 27 28 29 31 33 34 33 31 30 27 25 23 19 15 14 13 13 11 11 9 18 18 20 25 25 29 26 23 31 29
5 6 6 7 5 7 15 16 15 20 23 24 25 27 29 31 33 34 34 34 32 31 30 29 28 27 24 20 18 16 15 14 11 11 10 23 25 25 26 27 26 27 27 33
9 2 7 10 15 15 16 23 24 26 27 29 30 29 30 32 32 33 35 34 33 32 32 30 29 28 26 23 23 21 19 16 13 13 14 17 14 18 25 29 25 30 31 33
9 7 7 10 19 19 23 28 29 30 29 29 30 32 33 33 32 33 35 37 36 33 29 29 27 28 28 25 24 24 22 19 17 14 15 17 12 17 29 24 20 23 22 22
Wind_Direction
204 245 234 254 34 318 295 287 298 323 357 323 308 293 297 270 221 228 220 213 207 206 199 195 194 195 196 199 200 200 202 201 199 200 199 204 203 204 203 200 215 206 205 209
218 236 257 296 253 269 268 272 286 320 263 301 301 297 291 276 242 238 228 224 218 206 199 197 196 196 197 198 200 202 201 204 205 202 202 206 203 208 207 212 213 209 213 210
257 82 23 230 235 239 241 264 307 322 318 279 294 293 318 305 286 251 242 232 223 214 204 197 197 198 198 201 201 203 206 206 209 201 203 206 207 209 211 210 216 215 213 214
255 235 229 227 238 249 254 134 298 290 311 317 328 316 94 36 325 240 255 222 220 212 206 201 200 200 202 205 201 203 213 213 213 212 208 209 211 212 212 210 217 216 222 221
89 185 210 232 239 228 284 334 295 298 289 286 291 261 118 155 5 350 333 233 204 202 200 201 200 203 206 205 204 206 214 217 218 219 211 215 219 218 212 216 214 225 224 224
266 251 266 258 267 225 295 275 265 252 263 264 75 303 148 40 349 350 358 231 185 187 194 198 200 202 204 205 208 212 212 219 218 224 222 223 223 219 215 210 217 221 217 224
241 234 215 244 234 221 237 257 271 233 204 359 69 290 320 33 14 355 4 125 188 181 185 192 194 197 200 201 205 203 211 216 219 221 224 224 224 223 213 210 220 222 217 218
301 145 184 174 232 17 214 292 293 296 313 345 149 266 104 27 16 14 36 40 181 190 188 190 192 195 199 200 205 202 209 213 218 223 223 223 225 217 217 218 215 216 216 210
307 186 130 205 247 255 135 228 350 291 222 262 277 190 240 165 133 68 51 42 58 199 208 204 198 197 200 202 205 203 205 211 216 221 222 223 223 215 213 212 218 216 216 217
34 282 89 91 244 209 259 4 239 219 266 265 234 264 270 318 357 358 40 41 33 20 236 217 213 207 202 203 205 203 207 211 215 215 220 221 223 223 214 212 213 213 216 211
306 255 262 280 241 293 181 229 218 294 292 285 278 264 107 250 51 2 16 17 21 9 8 240 221 216 214 208 203 204 205 208 210 211 213 214 219 222 220 217 217 216 213 218
27 297 280 279 299 270 270 280 280 265 263 236 292 290 57 310 69 359 8 17 15 15 14 7 226 221 215 212 209 207 211 209 210 210 212 215 217 217 216 219 219 218 217 216
13 266 284 273 235 198 247 218 266 281 280 266 278 274 81 59 20 5 8 9 14 16 17 20 11 236 223 217 216 213 210 212 212 208 211 210 212 216 215 222 218 219 219 219
250 267 265 276 304 320 283 276 259 279 277 279 271 271 277 24 354 350 1 6 9 15 17 16 18 1 248 230 225 222 219 212 209 211 208 211 213 217 219 217 225 221 222 220
287 274 285 280 282 280 278 278 275 270 272 269 283 290 299 13 342 343 3 4 9 12 12 11 11 10 0 279 239 230 224 220 214 211 212 215 218 218 216 218 228 226 225 222
295 280 283 280 271 276 275 270 269 272 275 272 272 273 298 27 346 356 10 13 14 11 8 4 4 3 1 350 307 253 238 227 222 218 218 218 218 215 220 221 223 228 229 226
277 277 264 279 330 292 269 275 282 300 280 330 286 34 5 4 352 10 8 12 9 4 1 1 2 360 350 350 340 316 258 238 228 223 222 218 218 219 221 223 221 222 225 226
243 241 271 287 299 263 58 40 328 309 313 351 330 5 353 347 323 80 25 9 2 356 353 350 354 350 350 346 342 336 292 241 230 226 225 220 220 220 218 217 219 222 221 224
244 266 288 274 286 302 259 109 341 331 295 22 342 344 342 337 311 207 3 357 348 346 343 340 336 334 338 343 343 347 329 254 235 227 225 222 222 220 217 221 221 223 226 233
220 252 261 294 292 288 71 32 347 297 255 48 346 335 335 335 309 58 338 332 328 328 327 331 334 335 329 325 338 339 342 292 252 242 228 225 226 224 218 217 228 223 218 221
229 271 263 278 272 272 61 351 320 252 0 331 328 320 316 307 300 300 306 307 307 309 311 312 316 319 323 328 321 332 325 324 266 243 237 227 227 232 225 223 224 224 219 216
269 293 269 258 267 256 25 335 334 330 315 316 314 311 304 297 293 298 301 300 298 296 296 296 296 299 307 314 320 319 318 308 298 244 234 233 228 227 229 220 227 228 224 228
262 277 319 288 320 337 326 305 306 304 301 299 299 301 300 293 287 290 294 296 293 287 285 284 283 285 287 293 301 307 306 311 300 282 228 230 227 224 220 224 223 229 225 224
228 245 254 300 178 309 319 311 307 304 299 298 301 299 297 292 289 287 289 292 290 285 279 278 275 273 274 278 283 289 300 305 296 293 268 224 224 227 223 210 216 218 218 216
294 294 265 270 271 283 303 317 311 309 303 298 296 293 296 294 288 282 284 285 286 282 274 270 269 268 264 268 270 276 281 291 289 279 278 271 244 223 226 221 202 213 217 221
249 262 269 287 309 300 299 309 311 307 302 301 297 295 294 292 286 286 281 280 279 279 269 264 265 261 263 261 262 264 266 272 280 274 278 279 285 242 227 224 220 220 216 218